This is the latest recevied weather packets stored in our database for station/object KE8RXN. If no packets are shown the sender has not sent any weather packets the latest 10 day(s).
| Time | Temp. | Humidity | Pressure | Rain* | Wind** | Luminosity | Snow |
|---|---|---|---|---|---|---|---|
| 1788541833 | 21.11° C | 99% | 1018.5 hPa | 0 mm | - | 238 W/m² | - |
| 1788541529 | 21.11° C | 99% | 1018.1 hPa | 0 mm | - | 217 W/m² | - |
| 1788541225 | 21.11° C | 99% | 1018 hPa | 0 mm | - | 208 W/m² | - |
| 1788540923 | 20.56° C | 99% | 1017.8 hPa | 0 mm | - | 202 W/m² | - |
| 1788540623 | 20.56° C | 99% | 1018 hPa | 0 mm | - | 177 W/m² | - |
| 1788540318 | 20.56° C | 99% | 1017.9 hPa | 0 mm | - | 149 W/m² | - |
| 1788540014 | 20.56° C | 99% | 1018 hPa | 0 mm | - | 116 W/m² | - |
| 1788539713 | 20.56° C | 99% | 1018.2 hPa | 0 mm | - | 89 W/m² | - |
| 1788539409 | 20.56° C | 99% | 1018.6 hPa | 0 mm | - | 71 W/m² | - |
| 1788539103 | 20.56° C | 99% | 1018.5 hPa | 1.78 mm | - | 63 W/m² | - |
| 1788538799 | 20.56° C | 99% | 1018.7 hPa | 1.78 mm | - | 53 W/m² | - |
| 1788538494 | 20° C | 99% | 1018.7 hPa | 1.27 mm | - | 40 W/m² | - |
| 1788538189 | 20° C | 99% | 1018.3 hPa | 1.27 mm | - | 29 W/m² | - |
| 1788537883 | 20° C | 99% | 1017.9 hPa | 0 mm | - | 26 W/m² | - |
| 1788537579 | 20° C | 99% | 1017.7 hPa | 1.78 mm | - | 23 W/m² | - |
| 1788537273 | 20° C | 99% | 1017.7 hPa | 3.05 mm | - | 23 W/m² | - |
| 1788536972 | 20° C | 99% | 1017.8 hPa | 1.27 mm | - | 23 W/m² | - |
| 1788536667 | 20° C | 99% | 1017.9 hPa | 0 mm | - | 22 W/m² | - |
| 1788536362 | 20° C | 99% | 1017.9 hPa | 1.78 mm | - | 20 W/m² | - |
| 1788536057 | 20° C | 99% | 1017.9 hPa | 1.78 mm | - | 17 W/m² | - |
| 1788535753 | 20° C | 99% | 1018.4 hPa | 3.05 mm | - | 15 W/m² | - |
| 1788535448 | 20.56° C | 99% | 1018.3 hPa | 4.32 mm | - | 15 W/m² | - |
| 1788535147 | 20.56° C | 99% | 1018.7 hPa | 4.83 mm | - | 13 W/m² | - |
| 1788534842 | 20.56° C | 99% | 1019 hPa | 3.05 mm | - | 14 W/m² | - |
| 1788534538 | 20.56° C | 99% | 1018.6 hPa | 1.27 mm | - | 15 W/m² | - |
* Rain latest hour (hover to see other rain measurements)
** Current wind speed in m/s (hover to see current wind gust speed)